Torna al catalogo

STARLINK-34249

AttivoComunicazioniVLEO
NORAD 65376·PAYLOAD·🇺🇸 United States

Lanciato Aug 28, 2025 da Cape Canaveral Space Force Station

Loading…

Prossimi Passaggi (prossime 24 ore)

TLE

AggiornatoSource: CelesTrak SupGP

Epoca: Sep 15, 2026, 03:07 UTC

1 65376C 25190AB  26258.13034722  .00069728  00000+0  20599-2 0  2585
2 65376  53.1597   4.5128 0001214  91.8854 205.4777 15.34358544    17

Traccia STARLINK-34249 in tempo reale con AllMySat

Download on the App Store